CZ-2D R/B, 41858

Orbit data source: Space-Track

CZ-2D R/B, 41858 is space debris in SSO originally from a launch on Fri, 11 Nov 2016 UTC launched from the Jiuquan Satellite Launch Center, China (JSC). Debris objects in space refer to the collection of defunct objects orbiting the Earth. Examples of debris include non-operational satellites, rocket bodies, and fragments generated from explosions, collisions, or faulty payload assembly.

Loading next visibility...
Identifier
41858, 2016-068B
Orbit
SSO
Last TLE update
9 hours ago
Origin
Manufacturer
BWYIC
Mission
Spacecraft
Bus & Motor
CZ-2 STAGE 2, Unknown motor
Mass
4,006 kg wet, 4,006 kg dry
Launch date (UTC)
2016-11-11 (8 years ago)
Launch vehicle
Unknown
Launch site
Jiuquan Satellite Launch Center, China (JSC)
Object type
Payload
Rocket body
Debris
Shape & HBR
Cyl + 1 Sail, 8 m
Radar Cross Section
25.456 m², Large (>1 m²)

Expand to show TLE details & history

TLE from 9 hours ago
0 CZ-2D R/B
1 41858U 16068B   25128.89327322  .00000280  00000-0  10912-3 0  9997
2 41858  98.6202 127.9272 0032072 301.2059  58.5985 14.36933850444902
Epoch: 2025-05-08T21:26Z
Definitive object data (Epoch: 2025-05-08T21:26:18.806Z)
Latitude
0.00001°
Longitude
-60.6084°
Altitude
759.696 km
Speed
7.481 km/s
True Right ascension
08h 31m 42s
True Declination
0° 00' 00"
Sunlit
Object was in daylight at TLE epoch
Visualization TLE readout
Latitude
-58.47754°
Longitude
105.55463°
Altitude
779.958 km
Speed
7.469 km/s
Apparent Right ascension
00h 04m 12s
Apparent Declination
-64° 01' 41"
Sunlit
Object is in daylight
Visualization observer readout
Local Sidereal Time
15:03:23
Azimuth
147.807° SSE
Elevation
-54.609°
Doppler factor
1
Orbital elements
Apogee altitude
788.691 km
Perigee altitude
742.867 km
Semi-major axis
7,143.916 km
Eccentricity
0.0032072
Inclination
98.6202°
RAAN
127.9272°
Arg. of periapsis
301.2059°
True anomaly
58.91285°
Mean anomaly
58.5985°
Eccentric anomaly
58.75561°
Mean motion
3.5945 °/min
BSTAR
0.00010912
Orbital period
100.15 mins
Loading maneuver chart data...
Loading SW <> Apogee altitude chart data...
Loading historical data...
Loading historical data...
Loading historical data...
Loading historical data...
Loading historical data...
Loading historical data...
Loading historical data...

CZ-2D R/B Visibility forecast

Observer location: undefined°, undefined°

Span
Click to sort rows by Start time (UTC) header in descending order
Start Az.
Max El. time (UTC)
Max El. Az.
Max El.
End time (UTC)
End Az.
5 mins2025-05-09 11:25:28.469Z60.56° ENE2025-05-09 11:28:28.469Z96.357° ESE13.476°2025-05-09 11:30:28.469Z119.728° SE
9 mins2025-05-09 13:03:28.469Z5.759° NNE2025-05-09 13:07:28.469Z289.003° WNW42.669°2025-05-09 13:12:28.469Z205.243° SW
6 mins2025-05-09 22:40:28.469Z98.11° ESE2025-05-09 22:42:28.469Z71.085° E18.374°2025-05-09 22:46:28.469Z19.328° NNE
8 mins2025-05-10 00:18:28.469Z193.022° SSW2025-05-10 00:21:28.469Z255.627° W37.547°2025-05-10 00:26:28.469Z335.536° NNW
|